GW5803 Weather Reports


time (UTC)temp
F
wind
direction
speed
knots
gust
knots
rain 1hr
in
rain 24hr
in
rain mn
in
humidity
%
barometer
mb
20260906113329 69 2 0.0 0.0 0.00 0.02 0.02 98 1014.9
20260906112824 68 4 0.0 0.0 0.00 0.02 0.02 98 1014.9
20260906112320 68 4 0.0 0.0 0.00 0.02 0.02 98 1014.7
20260906111820 68 4 0.0 0.0 0.00 0.02 0.02 98 1014.7
20260906111320 68 4 0.0 0.0 0.00 0.02 0.02 98 1014.9
20260906110815 69 4 0.0 0.0 0.00 0.02 0.02 98 1014.7
20260906110311 68 4 0.0 0.0 0.00 0.02 0.02 98 1014.9
20260906105809 68 2 0.0 0.0 0.00 0.02 0.02 98 1014.6
20260906105306 68 2 0.0 0.0 0.00 0.02 0.02 98 1014.5
20260906104801 68 2 0.0 0.0 0.00 0.02 0.02 98 1014.6
20260906104259 68 2 0.0 0.0 0.00 0.02 0.02 98 1014.5
20260906103758 69 2 0.0 0.0 0.00 0.02 0.02 98 1014.4
20260906103257 69 2 0.0 0.0 0.00 0.02 0.02 98 1014.3
20260906102753 69 2 0.0 0.0 0.00 0.02 0.02 98 1014.5
20260906102252 69 2 0.0 0.0 0.00 0.02 0.02 98 1014.4
20260906101747 69 2 0.0 0.9 0.00 0.02 0.02 98 1014.5
20260906101242 69 0 0.0 0.0 0.00 0.02 0.02 98 1014.5
20260906100737 69 0 0.0 0.0 0.00 0.02 0.02 98 1014.6
20260906100237 69 0 0.0 0.0 0.00 0.02 0.02 98 1014.5
20260906095732 69 0 0.0 0.0 0.00 0.02 0.02 98 1014.5
20260906095228 69 358 0.0 0.0 0.00 0.02 0.02 98 1014.4
20260906094727 69 358 0.0 0.0 0.00 0.02 0.02 98 1014.5
20260906094222 69 358 0.0 0.0 0.00 0.02 0.02 98 1014.3
20260906093718 69 359 0.0 0.0 0.00 0.02 0.02 98 1014.4
20260906093214 69 0 0.0 0.0 0.00 0.02 0.02 98 1014.3
20260906092709 69 0 0.0 0.0 0.00 0.02 0.02 98 1014.3
20260906092208 70 0 0.0 0.0 0.00 0.02 0.02 98 1014.3
20260906091704 70 0 0.0 0.0 0.00 0.02 0.02 98 1014.1
20260906091200 70 0 0.0 0.0 0.00 0.02 0.02 98 1014.5
20260906090656 70 0 0.0 0.0 0.00 0.02 0.02 98 1014.3
20260906090156 70 0 0.0 0.0 0.00 0.02 0.02 98 1014.6
20260906085655 70 2 0.0 0.0 0.00 0.02 0.02 98 1014.5
20260906085154 70 1 0.0 0.0 0.00 0.02 0.02 98 1014.6
20260906084649 70 359 0.0 0.0 0.00 0.02 0.02 98 1014.6
20260906084148 70 6 0.0 0.0 0.00 0.02 0.02 98 1014.9
20260906083643 70 5 0.0 0.0 0.00 0.02 0.02 98 1015.0
20260906083139 71 4 0.0 0.0 0.00 0.02 0.02 98 1015.1
20260906082634 71 7 0.9 1.7 0.00 0.02 0.02 98 1015.3
20260906082130 71 6 0.0 0.0 0.00 0.02 0.02 98 1015.4
20260906081626 71 6 0.0 0.9 0.00 0.02 0.02 98 1015.5
20260906081120 71 6 0.0 0.9 0.12 0.02 0.02 97 1015.7
20260906080617 72 5 0.0 0.9 0.12 0.02 0.02 96 1015.7
20260906080113 72 6 0.0 0.0 0.00 0.00 0.00 95 1015.6
20260906075612 72 4 0.0 0.0 0.00 0.00 0.00 95 1015.8
20260906075107 72 6 0.9 1.7 0.00 0.00 0.00 94 1015.8
20260906074603 72 6 0.0 0.0 0.00 0.00 0.00 94 1015.8
20260906074101 72 4 0.0 0.0 0.00 0.00 0.00 93 1015.5
20260906073556 73 4 0.0 0.9 0.00 0.00 0.00 93 1015.4
20260906073052 73 6 0.0 0.0 0.00 0.00 0.00 93 1015.4
20260906072552 73 3 0.9 1.7 0.00 0.00 0.00 92 1015.3
20260906072049 73 1 2.6 2.6 0.00 0.00 0.00 92 1015.0
20260906071545 72 0 1.7 4.3 0.00 0.00 0.00 93 1014.9
20260906071039 72 359 0.9 2.6 0.00 0.00 0.00 94 1015.0
20260906070536 72 2 0.0 0.0 0.00 0.00 0.00 93 1014.9
20260906070031 71 2 0.9 1.7 0.00 0.00 0.00 94 1014.6
20260906065531 71 2 0.9 1.7 0.00 0.00 0.00 96 1014.5
20260906065027 70 3 0.0 0.0 0.00 0.00 0.00 96 1014.5
20260906064523 70 1 0.0 0.0 0.00 0.00 0.00 96 1014.3
20260906064023 70 2 0.0 0.9 0.00 0.00 0.00 96 1014.5
20260906063518 70 357 0.9 0.9 0.00 0.00 0.00 96 1014.8
20260906063014 70 2 0.0 0.9 0.00 0.00 0.00 95 1015.1
20260906062509 71 2 0.0 0.0 0.00 0.00 0.00 95 1015.1
20260906062003 71 2 0.9 1.7 0.00 0.00 0.00 94 1015.4
20260906061459 70 2 2.6 7.0 0.00 0.00 0.00 94 1015.4
20260906060953 69 1 0.0 0.0 0.00 0.00 0.00 98 1015.1
20260906060450 69 2 0.0 0.0 0.00 0.00 0.00 98 1014.6
20260906055947 69 2 0.0 0.0 0.00 0.00 0.00 98 1014.7
20260906055442 69 359 0.0 0.0 0.00 0.00 0.00 98 1014.8
20260906054937 69 3 0.0 0.0 0.00 0.00 0.00 98 1014.8
20260906054432 69 0 0.0 0.0 0.00 0.00 0.00 98 1014.7
20260906053928 69 0 0.0 0.0 0.00 0.00 0.00 98 1015.0
20260906053424 69 0 0.0 0.0 0.00 0.00 0.00 98 1015.0
20260906052920 69 0 0.0 0.0 0.00 0.00 0.00 98 1014.9
20260906052416 69 0 0.0 0.0 0.00 0.00 0.00 98 1015.0
20260906051912 69 0 0.0 0.0 0.00 0.00 0.00 98 1015.1
20260906051412 69 0 0.0 0.0 0.00 0.00 0.00 98 1015.3
20260906050908 69 0 0.0 0.0 0.00 0.00 0.00 98 1015.2
20260906050408 69 0 0.0 0.0 0.00 0.00 0.00 98 1015.2
20260906045907 68 0 0.0 0.0 0.00 0.00 0.00 98 1015.2
20260906045406 69 0 0.0 0.0 0.00 0.00 0.00 98 1014.9
20260906044902 69 0 0.0 0.0 0.00 0.00 0.00 98 1015.2
20260906044403 69 0 0.0 0.0 0.00 0.00 0.00 98 1015.2
20260906043858 69 0 0.0 0.0 0.00 0.00 0.00 98 1015.2
20260906043355 68 0 0.0 0.0 0.00 0.00 0.00 98 1015.4
20260906042855 68 0 0.0 0.0 0.00 0.00 0.00 98 1015.5
20260906042353 68 0 0.0 0.0 0.00 0.00 0.00 98 1015.5
20260906041849 68 0 0.0 0.0 0.00 0.00 0.00 98 1015.7
20260906041345 68 0 0.0 0.0 0.00 0.00 0.00 98 1015.6
20260906040845 68 0 0.0 0.0 0.00 0.00 0.00 98 1015.7
20260906040340 68 0 0.0 0.0 0.00 0.00 0.00 98 1015.7
20260906035835 69 0 0.0 0.0 0.00 0.06 0.06 98 1015.8
20260906035331 68 1 0.0 0.0 0.00 0.06 0.06 98 1015.7
20260906034827 68 2 0.0 0.0 0.00 0.06 0.06 98 1015.6
20260906034327 68 2 0.0 0.0 0.00 0.06 0.06 98 1015.6
20260906033823 68 2 0.0 0.0 0.00 0.06 0.06 98 1015.6
20260906033321 68 2 0.0 0.0 0.00 0.06 0.06 98 1015.5
20260906032818 69 2 0.0 0.0 0.00 0.06 0.06 98 1015.6
20260906032314 69 2 0.0 0.0 0.00 0.06 0.06 98 1015.4
20260906031809 69 2 0.0 0.0 0.00 0.06 0.06 98 1015.6
20260906031304 69 2 0.0 0.0 0.00 0.06 0.06 98 1015.5
20260906030804 69 2 0.0 0.0 0.00 0.06 0.06 98 1015.7
20260906030259 69 2 0.0 0.0 0.00 0.06 0.06 98 1015.5
20260906025759 69 2 0.0 0.0 0.00 0.06 0.06 98 1015.3
20260906025253 69 2 0.0 0.0 0.00 0.06 0.06 98 1015.4
20260906024752 69 2 0.0 0.0 0.00 0.06 0.06 98 1015.3
20260906024251 69 2 0.0 0.0 0.00 0.06 0.06 98 1015.4
20260906023747 69 2 0.0 0.0 0.00 0.06 0.06 98 1015.7
20260906023242 69 2 0.0 0.0 0.00 0.06 0.06 98 1015.6
20260906022738 69 3 0.0 0.0 0.00 0.06 0.06 98 1015.3
20260906022233 69 353 0.0 0.0 0.00 0.06 0.06 98 1015.1
20260906021729 69 353 0.0 0.0 0.00 0.06 0.06 98 1014.8
20260906021227 69 2 0.0 0.0 0.00 0.06 0.06 98 1014.9
20260906020723 69 2 0.0 0.0 0.00 0.06 0.06 98 1014.8
20260906020217 69 2 0.0 0.0 0.00 0.06 0.06 98 1014.7
20260906015712 69 1 0.0 0.0 0.00 0.06 0.06 98 1014.9
20260906015210 69 1 0.0 0.0 0.00 0.06 0.06 98 1014.8
20260906014710 69 1 0.0 0.0 0.00 0.06 0.06 97 1015.0
20260906014207 69 1 0.0 0.0 0.00 0.06 0.06 97 1014.8
20260906013702 69 2 0.0 0.0 0.00 0.06 0.06 97 1014.5
20260906013157 69 2 0.0 0.0 0.00 0.06 0.06 98 1014.5
20260906012657 69 2 0.0 0.0 0.00 0.06 0.06 98 1014.4
20260906012152 69 2 0.0 0.0 0.00 0.06 0.06 98 1014.4
20260906011648 70 2 0.0 0.0 0.00 0.06 0.06 97 1014.4
20260906011148 70 2 0.0 0.0 0.00 0.06 0.06 97 1014.5
20260906010643 70 2 0.0 0.0 0.00 0.06 0.06 96 1014.5
20260906010139 70 2 0.0 0.0 0.00 0.06 0.06 97 1014.5
20260906005639 71 2 0.0 0.0 0.00 0.06 0.06 96 1014.5
20260906005138 71 2 0.0 0.0 0.00 0.06 0.06 96 1014.5
20260906004637 71 2 0.0 0.0 0.00 0.06 0.06 95 1014.4
20260906004132 71 2 0.0 0.0 0.00 0.06 0.06 95 1014.4
20260906003627 71 2 0.0 0.0 0.00 0.06 0.06 95 1014.5
20260906003123 71 2 0.0 0.0 0.00 0.06 0.06 94 1014.5
20260906002618 72 3 0.0 0.0 0.00 0.06 0.06 94 1014.4
20260906002113 72 49 0.0 0.0 0.00 0.06 0.06 94 1014.6
20260906001609 73 50 0.0 0.0 0.00 0.06 0.06 95 1014.5
20260906001108 73 50 0.0 0.0 0.00 0.06 0.06 94 1014.7
20260906000605 73 50 0.0 0.0 0.00 0.06 0.06 94 1014.9
20260906000059 73 50 0.0 0.0 0.00 0.06 0.06 93 1014.8
20260905235558 74 50 0.0 0.0 0.00 0.06 0.06 92 1014.8
20260905235054 74 50 0.0 0.0 0.00 0.06 0.06 91 1015.0
20260905234549 74 76 0.0 0.0 0.00 0.06 0.06 90 1014.6
20260905234044 75 76 0.0 0.0 0.00 0.06 0.06 90 1014.9
20260905233544 75 75 0.0 0.0 0.00 0.06 0.06 90 1014.7
20260905233044 76 44 0.0 0.0 0.00 0.06 0.06 88 1014.7
20260905232539 76 108 0.0 0.0 0.00 0.06 0.06 86 1014.6
20260905232035 75 109 0.0 0.0 0.00 0.06 0.06 85 1014.4
20260905231530 75 63 0.0 0.0 0.00 0.06 0.06 86 1014.6
20260905231026 76 63 0.0 0.0 0.00 0.06 0.06 85 1014.0
20260905230525 76 62 0.0 0.0 0.00 0.06 0.06 85 1013.9
20260905230024 77 63 0.0 0.0 0.00 0.06 0.06 87 1014.1
20260905225519 77 62 0.0 0.0 0.00 0.06 0.06 85 1014.0
20260905225014 78 62 0.0 0.0 0.00 0.06 0.06 84 1014.1
20260905224509 77 61 0.0 0.0 0.00 0.06 0.06 85 1014.1
20260905224008 76 86 0.0 0.0 0.00 0.06 0.06 85 1014.0
20260905223506 76 140 0.0 0.0 0.00 0.06 0.06 86 1014.4
20260905223002 76 44 0.0 0.0 0.05 0.06 0.06 86 1014.5
20260905222501 75 44 0.0 0.0 0.05 0.06 0.06 87 1014.5
20260905221956 74 53 0.0 0.0 0.00 0.05 0.05 88 1014.7
20260905221453 74 69 0.0 0.0 0.00 0.05 0.05 90 1014.5
20260905220949 73 73 0.0 0.0 0.00 0.05 0.05 90 1014.6
20260905220445 72 34 0.0 0.0 0.00 0.05 0.05 92 1014.8
20260905215944 72 35 0.0 0.0 0.00 0.05 0.05 92 1014.7
20260905215440 72 59 0.0 0.0 0.00 0.05 0.05 91 1014.7
20260905214936 71 77 0.0 0.0 0.00 0.05 0.05 91 1014.7
20260905214432 72 349 0.9 1.7 0.00 0.05 0.05 93 1014.6
20260905213931 71 47 0.0 0.0 0.00 0.05 0.05 92 1014.6
20260905213428 71 62 0.0 0.9 0.00 0.05 0.05 92 1014.5
20260905212923 71 39 0.0 0.0 0.00 0.05 0.05 90 1014.5
20260905212417 71 49 0.0 0.0 0.00 0.05 0.05 92 1014.5
20260905211917 71 90 0.9 0.9 0.00 0.05 0.05 91 1014.7
20260905211413 72 321 1.7 1.7 0.00 0.05 0.05 89 1015.0
20260905210909 74 13 0.9 1.7 0.00 0.05 0.05 82 1015.0
20260905210408 72 39 0.0 0.0 0.00 0.05 0.05 85 1015.1
20260905205908 72 37 0.0 1.7 0.00 0.05 0.05 86 1015.1
20260905205403 72 355 3.5 5.2 0.00 0.05 0.05 85 1015.2
20260905204901 72 18 0.0 1.7 0.00 0.05 0.05 89 1015.3
20260905204358 73 45 0.9 4.3 0.00 0.05 0.05 85 1015.3
20260905203856 76 355 0.9 1.7 0.00 0.05 0.05 82 1015.5
20260905203352 77 34 6.1 7.0 0.00 0.05 0.05 78 1015.6
20260905202848 78 25 1.7 7.8 0.00 0.05 0.05 79 1015.3
20260905202342 79 19 4.3 6.1 0.00 0.05 0.05 78 1015.7
20260905201838 80 47 4.3 7.0 0.00 0.05 0.05 79 1015.7
20260905201334 80 17 6.1 12.2 0.00 0.05 0.05 80 1016.1
20260905200833 80 29 2.6 4.3 0.00 0.05 0.05 80 1016.4
20260905200330 78 84 0.0 2.6 0.00 0.05 0.05 83 1016.2
20260905195827 78 44 2.6 4.3 0.00 0.05 0.05 86 1016.1
20260905195323 77 27 0.9 1.7 0.00 0.05 0.05 87 1016.1
20260905194819 74 32 0.9 4.3 0.00 0.05 0.05 92 1016.1
20260905194318 74 126 0.9 1.7 0.07 0.05 0.05 96 1015.9
20260905193818 73 66 0.0 0.0 0.07 0.05 0.05 97 1016.2
20260905193313 73 54 0.0 0.9 0.05 0.04 0.04 97 1016.2
20260905192808 74 76 0.0 0.0 0.12 0.04 0.04 96 1016.4
20260905192306 75 199 0.9 1.7 0.14 0.03 0.03 94 1016.4
20260905191803 75 344 0.9 1.7 0.12 0.02 0.02 93 1016.9
20260905191302 75 25 2.6 7.0 0.05 0.01 0.01 91 1016.9
20260905190801 77 23 6.1 7.8 0.00 0.00 0.00 91 1016.8
20260905190300 82 54 7.0 17.4 0.00 0.00 0.00 85 1016.6
20260905185759 86 16 2.6 5.2 0.00 0.00 0.00 72 1015.8
20260905185254 87 14 2.6 5.2 0.00 0.00 0.00 69 1015.9
20260905184754 91 350 3.5 7.0 0.00 0.00 0.00 62 1016.1
20260905184253 93 359 0.9 1.7 0.00 0.00 0.00 60 1015.6
20260905183753 94 351 0.9 1.7 0.00 0.00 0.00 54 1015.6
20260905183248 90 4 2.6 4.3 0.00 0.00 0.00 59 1015.5
20260905182748 91 2 1.7 5.2 0.00 0.00 0.00 59 1015.7
20260905182247 93 10 0.0 0.0 0.00 0.00 0.00 58 1015.6
20260905181743 89 4 0.0 0.9 0.00 0.00 0.00 61 1015.7
20260905181242 89 2 0.9 1.7 0.00 0.00 0.00 66 1015.9
20260905180737 89 350 0.9 1.7 0.00 0.00 0.00 60 1016.1
20260905180232 88 6 2.6 2.6 0.00 0.00 0.00 63 1016.1
20260905175732 91 2 2.6 4.3 0.00 0.00 0.00 61 1016.2
20260905175227 92 358 0.0 1.7 0.00 0.00 0.00 58 1016.2
20260905174722 90 0 1.7 4.3 0.00 0.00 0.00 62 1016.3
20260905174218 90 358 3.5 4.3 0.00 0.00 0.00 65 1016.3
20260905173714 90 2 2.6 2.6 0.00 0.00 0.00 67 1016.5
20260905173210 87 6 0.9 1.7 0.00 0.00 0.00 67 1016.2
20260905172708 88 8 2.6 2.6 0.00 0.00 0.00 66 1016.1
20260905172203 91 2 3.5 6.1 0.00 0.00 0.00 61 1016.3
20260905171658 91 343 1.7 1.7 0.00 0.00 0.00 60 1016.4
20260905171154 90 345 0.0 0.0 0.00 0.00 0.00 62 1016.5
20260905170652 90 357 1.7 5.2 0.00 0.00 0.00 63 1016.6
20260905170146 89 356 0.9 0.9 0.00 0.00 0.00 65 1016.6
20260905165646 90 357 1.7 4.3 0.00 0.00 0.00 63 1016.6
20260905165141 89 349 0.9 1.7 0.00 0.00 0.00 68 1017.0
20260905164636 89 1 0.9 2.6 0.00 0.00 0.00 63 1017.0
20260905164135 88 359 0.9 2.6 0.00 0.00 0.00 65 1016.9
20260905163632 89 0 1.7 4.3 0.00 0.00 0.00 67 1017.1
20260905163128 88 0 0.0 1.7 0.00 0.00 0.00 67 1016.9
20260905162624 89 355 0.9 1.7 0.00 0.00 0.00 65 1017.0
20260905162123 88 356 0.9 0.9 0.00 0.00 0.00 64 1017.1
20260905161623 87 355 0.9 1.7 0.00 0.00 0.00 69 1017.2
20260905161121 86 3 0.9 2.6 0.00 0.00 0.00 69 1017.1
20260905160621 86 7 2.6 4.3 0.00 0.00 0.00 70 1017.1
20260905160115 84 355 0.9 1.7 0.00 0.00 0.00 74 1017.1
20260905155609 82 348 0.0 0.0 0.00 0.00 0.00 82 1017.2
20260905155108 81 358 0.0 0.0 0.00 0.00 0.00 83 1017.2
20260905154608 80 0 0.0 0.0 0.00 0.00 0.00 83 1017.3
20260905154104 80 2 0.0 0.0 0.00 0.00 0.00 82 1017.3
20260905153559 80 0 0.0 0.0 0.00 0.00 0.00 84 1017.3
20260905153054 80 2 0.0 0.0 0.00 0.00 0.00 83 1017.2
20260905152549 80 2 0.0 0.0 0.00 0.00 0.00 82 1017.2
20260905152044 80 2 0.0 0.0 0.00 0.00 0.00 83 1017.2
20260905151539 81 2 0.0 0.0 0.00 0.00 0.00 83 1017.3
20260905151035 81 0 0.0 0.0 0.00 0.00 0.00 81 1017.4
20260905150529 81 2 0.0 0.0 0.00 0.00 0.00 80 1017.4
20260905150028 82 2 0.0 0.0 0.00 0.00 0.00 78 1017.4
20260905145527 83 2 0.0 0.0 0.00 0.00 0.00 76 1017.4
20260905145026 83 2 1.7 1.7 0.00 0.00 0.00 73 1017.4
20260905144521 84 1 0.0 0.0 0.00 0.00 0.00 75 1017.4
20260905144020 83 1 0.0 0.0 0.00 0.00 0.00 76 1017.4
20260905143520 82 1 0.0 0.0 0.00 0.00 0.00 80 1017.4
20260905143015 81 1 0.0 0.0 0.00 0.00 0.00 79 1017.3
20260905142513 82 1 0.0 0.0 0.00 0.00 0.00 79 1017.6
20260905142009 83 1 0.0 0.0 0.00 0.00 0.00 75 1017.3
20260905141509 83 2 0.0 0.9 0.00 0.00 0.00 76 1017.4
20260905141006 83 1 0.9 1.7 0.00 0.00 0.00 75 1017.3
20260905140500 83 1 0.0 0.9 0.00 0.00 0.00 76 1017.7
20260905135959 82 0 1.7 1.7 0.00 0.00 0.00 74 1017.4
20260905135455 82 0 0.9 1.7 0.00 0.00 0.00 78 1017.4
20260905134950 82 355 0.0 1.7 0.00 0.00 0.00 74 1017.5
20260905134449 81 359 0.0 0.0 0.00 0.00 0.00 76 1017.4
20260905133949 81 0 0.0 0.0 0.00 0.00 0.00 80 1017.5
20260905133444 80 359 0.0 0.0 0.00 0.00 0.00 84 1017.6
20260905132943 79 0 0.0 0.0 0.00 0.00 0.00 87 1017.7
20260905132438 78 359 0.0 0.0 0.00 0.00 0.00 88 1017.5
20260905131933 78 0 0.0 0.0 0.00 0.00 0.00 90 1017.7
20260905131429 77 0 0.0 0.0 0.00 0.00 0.00 90 1017.6
20260905130924 77 0 0.0 0.0 0.00 0.00 0.00 90 1017.7
20260905130423 76 0 0.0 0.0 0.00 0.00 0.00 91 1017.6
20260905125923 75 0 0.0 0.0 0.00 0.00 0.00 92 1017.9
20260905125418 74 0 0.0 0.0 0.00 0.00 0.00 93 1017.6
20260905124914 74 0 0.0 0.0 0.00 0.00 0.00 95 1017.6
20260905124410 73 0 0.0 0.0 0.00 0.00 0.00 96 1017.7
20260905123910 72 0 0.0 0.0 0.00 0.00 0.00 98 1017.9
20260905123407 72 0 0.0 0.0 0.00 0.00 0.00 98 1017.7
20260905122902 71 0 0.0 0.0 0.00 0.00 0.00 98 1017.7
20260905122401 71 0 0.0 0.0 0.00 0.00 0.00 98 1017.7
20260905121857 70 0 0.0 0.0 0.00 0.00 0.00 98 1017.5
20260905121353 70 0 0.0 0.0 0.00 0.00 0.00 98 1017.5
20260905120852 70 0 0.0 0.0 0.00 0.00 0.00 98 1017.5
20260905120346 69 0 0.0 0.0 0.00 0.00 0.00 98 1017.6
20260905115841 69 0 0.0 0.0 0.00 0.00 0.00 98 1017.5
20260905115340 69 0 0.0 0.0 0.00 0.00 0.00 98 1017.3
20260905114835 69 0 0.0 0.0 0.00 0.00 0.00 98 1017.2
20260905114334 69 0 0.0 0.0 0.00 0.00 0.00 98 1017.1
20260905113834 69 0 0.0 0.0 0.00 0.00 0.00 98 1017.1